• In United Kingdom
  • List of Countries
  • For 7 days
  • Water Temperature
  • Satellite Maps
  • Weather Map
  • Weather Widgets
  • user-avatar
    Login

    Hourly Weather Sedki

    Today, 24 October, Wednesday

    Time Temperature Precipitation Wind Pressure Humidity
    00:00 +7°C° 0.3 mm 9 mps 738 mmHg 76%
    01:00 +6°C° 0.3 mm 9 mps 738 mmHg 74%
    02:00 +6°C° 0.2 mm 9 mps 738 mmHg 73%
    03:00 +5°C° 0.2 mm 9 mps 738 mmHg 71%
    04:00 +5°C° 0.2 mm 9 mps 738 mmHg 70%
    05:00 +5°C° 0.2 mm 9 mps 739 mmHg 69%
    06:00 +3°C° 0.2 mm 9 mps 740 mmHg 67%
    07:00 +4°C° 0.2 mm 8 mps 741 mmHg 66%
    08:00 +5°C° 0 mm 9 mps 741 mmHg 60%
    09:00 +5°C° 0 mm 10 mps 742 mmHg 54%
    10:00 +4°C° 0 mm 11 mps 743 mmHg 48%
    11:00 +6°C° 0 mm 11 mps 743 mmHg 48%
    12:00 +6°C° 0 mm 11 mps 744 mmHg 48%
    13:00 +6°C° 0 mm 11 mps 744 mmHg 47%
    14:00 +6°C° 0 mm 10 mps 745 mmHg 49%
    15:00 +6°C° 0 mm 9 mps 745 mmHg 50%
    16:00 +5°C° 0 mm 9 mps 746 mmHg 52%
    17:00 +5°C° 0 mm 8 mps 746 mmHg 54%
    18:00 +4°C° 0 mm 8 mps 747 mmHg 57%
    19:00 +4°C° 0 mm 8 mps 748 mmHg 59%
    20:00 +4°C° 0 mm 7 mps 748 mmHg 61%
    21:00 +3°C° 0 mm 7 mps 749 mmHg 63%
    22:00 +3°C° 0 mm 6 mps 749 mmHg 64%
    23:00 +3°C° 0 mm 6 mps 749 mmHg 66%

    Tomorrow, 25 October, Thursday

    Time Temperature Precipitation Wind Pressure Humidity
    00:00 +3°C° 0 mm 6 mps 749 mmHg 68%
    01:00 +2°C° 0 mm 6 mps 749 mmHg 70%
    02:00 +2°C° 0 mm 5 mps 749 mmHg 71%
    03:00 +2°C° 0 mm 5 mps 749 mmHg 73%
    04:00 +2°C° 0 mm 5 mps 748 mmHg 74%
    05:00 +3°C° 0.2 mm 5 mps 747 mmHg 77%
    06:00 +3°C° 0.2 mm 5 mps 747 mmHg 80%
    07:00 +3°C° 0.2 mm 5 mps 746 mmHg 82%
    08:00 +4°C° 1.1 mm 6 mps 745 mmHg 85%
    09:00 +6°C° 1.1 mm 7 mps 744 mmHg 87%
    10:00 +8°C° 1.1 mm 7 mps 743 mmHg 89%
    11:00 +9°C° 0.5 mm 8 mps 743 mmHg 85%
    12:00 +8°C° 0.5 mm 9 mps 742 mmHg 81%
    13:00 +9°C° 0.5 mm 10 mps 742 mmHg 77%
    14:00 +9°C° 0.3 mm 10 mps 742 mmHg 75%
    15:00 +8°C° 0.3 mm 10 mps 743 mmHg 73%
    16:00 +8°C° 0.3 mm 10 mps 743 mmHg 71%
    17:00 +7°C° 0 mm 9 mps 743 mmHg 72%
    18:00 +7°C° 0 mm 8 mps 744 mmHg 74%
    19:00 +6°C° 0 mm 8 mps 745 mmHg 75%
    20:00 +6°C° 0 mm 8 mps 745 mmHg 77%
    21:00 +6°C° 0 mm 7 mps 745 mmHg 79%
    22:00 +5°C° 0 mm 7 mps 746 mmHg 80%
    23:00 +5°C° 0 mm 7 mps 746 mmHg 82%

    Day after tomorrow, 26 October, Friday

    Time Temperature Precipitation Wind Pressure Humidity
    00:00 +5°C° 0 mm 7 mps 746 mmHg 83%
    01:00 +5°C° 0 mm 7 mps 746 mmHg 85%
    02:00 +4°C° 0 mm 6 mps 746 mmHg 86%
    03:00 +4°C° 0 mm 6 mps 747 mmHg 87%
    04:00 +4°C° 0 mm 6 mps 747 mmHg 88%
    05:00 +4°C° 0 mm 6 mps 747 mmHg 88%
    06:00 +5°C° 0 mm 5 mps 747 mmHg 89%
    07:00 +5°C° 0 mm 5 mps 747 mmHg 89%
    08:00 +6°C° 0 mm 5 mps 747 mmHg 84%
    09:00 +7°C° 0 mm 6 mps 747 mmHg 79%
    10:00 +8°C° 0 mm 6 mps 747 mmHg 74%
    11:00 +8°C° 0 mm 6 mps 746 mmHg 70%
    12:00 +9°C° 0 mm 6 mps 746 mmHg 66%
    13:00 +10°C° 0 mm 6 mps 746 mmHg 62%
    14:00 +10°C° 0.1 mm 6 mps 745 mmHg 68%
    15:00 +10°C° 0.1 mm 5 mps 745 mmHg 74%
    16:00 +9°C° 0.1 mm 5 mps 744 mmHg 79%
    17:00 +9°C° 0.1 mm 5 mps 744 mmHg 79%
    18:00 +9°C° 0.1 mm 5 mps 743 mmHg 80%
    19:00 +9°C° 0.1 mm 6 mps 743 mmHg 80%
    20:00 +9°C° 0.1 mm 6 mps 742 mmHg 79%
    21:00 +9°C° 0.1 mm 7 mps 742 mmHg 78%
    22:00 +9°C° 0.1 mm 7 mps 742 mmHg 77%
    23:00 +9°C° 0 mm 7 mps 742 mmHg 77%

    27 October, Saturday

    Time Temperature Precipitation Wind Pressure Humidity
    00:00 +7°C° 0 mm 8 mps 742 mmHg 76%
    01:00 +7°C° 0 mm 8 mps 742 mmHg 76%
    02:00 +6°C° 0.1 mm 8 mps 742 mmHg 74%
    03:00 +6°C° 0.1 mm 8 mps 742 mmHg 72%
    04:00 +5°C° 0.1 mm 8 mps 742 mmHg 70%
    05:00 +5°C° 0 mm 9 mps 743 mmHg 71%
    06:00 +5°C° 0 mm 9 mps 744 mmHg 71%
    07:00 +5°C° 0 mm 9 mps 744 mmHg 72%
    08:00 +5°C° 0 mm 9 mps 745 mmHg 69%
    09:00 +6°C° 0 mm 8 mps 746 mmHg 67%
    10:00 +6°C° 0 mm 8 mps 746 mmHg 64%
    11:00 +6°C° 0 mm 7 mps 747 mmHg 63%
    12:00 +6°C° 0 mm 7 mps 747 mmHg 62%
    13:00 +6°C° 0 mm 7 mps 748 mmHg 61%
    14:00 +7°C° 0 mm 6 mps 748 mmHg 61%
    15:00 +6°C° 0 mm 5 mps 748 mmHg 62%
    16:00 +6°C° 0 mm 4 mps 749 mmHg 63%
    17:00 +7°C° 0 mm 3 mps 749 mmHg 64%
    18:00 +7°C° 0 mm 3 mps 750 mmHg 65%
    19:00 +6°C° 0 mm 2 mps 751 mmHg 66%
    20:00 +6°C° 0 mm 2 mps 751 mmHg 68%
    21:00 +7°C° 0 mm 1 mps 751 mmHg 70%
    22:00 +6°C° 0 mm 1 mps 751 mmHg 72%
    23:00 +6°C° 0 mm 1 mps 752 mmHg 73%

    28 October, Sunday

    Time Temperature Precipitation Wind Pressure Humidity
    00:00 +6°C° 0 mm 1 mps 752 mmHg 74%
    01:00 +5°C° 0 mm 1 mps 752 mmHg 75%
    02:00 +5°C° 0 mm 1 mps 752 mmHg 75%
    03:00 +5°C° 0 mm 1 mps 753 mmHg 75%
    04:00 +5°C° 0 mm 1 mps 753 mmHg 75%
    05:00 +5°C° 0 mm 1 mps 753 mmHg 75%
    06:00 +4°C° 0 mm 2 mps 753 mmHg 75%
    07:00 +4°C° 0 mm 2 mps 753 mmHg 75%
    08:00 +5°C° 0 mm 2 mps 754 mmHg 72%
    09:00 +5°C° 0 mm 3 mps 754 mmHg 69%
    10:00 +5°C° 0 mm 3 mps 754 mmHg 65%
    11:00 +7°C° 0.1 mm 3 mps 754 mmHg 65%
    12:00 +7°C° 0.1 mm 3 mps 754 mmHg 65%
    13:00 +7°C° 0.1 mm 3 mps 754 mmHg 65%
    14:00 +5°C° 0.5 mm 4 mps 754 mmHg 67%
    15:00 +5°C° 0.5 mm 4 mps 754 mmHg 70%
    16:00 +5°C° 0.5 mm 5 mps 754 mmHg 72%
    17:00 +3°C° 0.5 mm 5 mps 754 mmHg 73%
    18:00 +3°C° 0.5 mm 5 mps 754 mmHg 74%
    19:00 +3°C° 0.5 mm 6 mps 754 mmHg 74%
    20:00 +3°C° 0.4 mm 6 mps 754 mmHg 75%
    21:00 +3°C° 0.4 mm 6 mps 754 mmHg 76%
    22:00 +3°C° 0.4 mm 7 mps 754 mmHg 77%
    23:00 +3°C° 0.8 mm 7 mps 753 mmHg 77%

    29 October, Monday

    Time Temperature Precipitation Wind Pressure Humidity
    00:00 +3°C° 0.8 mm 7 mps 753 mmHg 78%
    01:00 +2°C° 0.8 mm 8 mps 753 mmHg 79%
    02:00 +1°C° 0.8 mm 8 mps 753 mmHg 80%
    03:00 +1°C° 0.8 mm 8 mps 752 mmHg 80%
    04:00 +1°C° 0.8 mm 8 mps 752 mmHg 80%
    05:00 +1°C° 0.4 mm 8 mps 752 mmHg 81%
    06:00 +1°C° 0.4 mm 8 mps 752 mmHg 81%
    07:00 +2°C° 0.4 mm 8 mps 752 mmHg 81%
    08:00 +2°C° 0.5 mm 8 mps 752 mmHg 80%
    09:00 +2°C° 0.5 mm 8 mps 752 mmHg 79%
    10:00 +2°C° 0.5 mm 9 mps 752 mmHg 79%
    11:00 +2°C° 0.6 mm 9 mps 751 mmHg 79%
    12:00 +2°C° 0.6 mm 9 mps 751 mmHg 79%
    13:00 +1°C° 0.6 mm 9 mps 751 mmHg 79%
    14:00 +1°C° 0.6 mm 9 mps 751 mmHg 80%
    15:00 +1°C° 0.6 mm 8 mps 751 mmHg 80%
    16:00 +1°C° 0.6 mm 8 mps 751 mmHg 81%
    17:00 +1°C° 0.5 mm 8 mps 752 mmHg 81%
    18:00 0°C° 0.5 mm 8 mps 752 mmHg 82%
    19:00 0°C° 0.5 mm 8 mps 753 mmHg 83%
    20:00 0°C° 0.1 mm 8 mps 753 mmHg 83%
    21:00 0°C° 0.1 mm 7 mps 754 mmHg 83%
    22:00 0°C° 0.1 mm 7 mps 754 mmHg 83%
    23:00 0°C° 0 mm 7 mps 754 mmHg 83%
    Show more